Find Kosmos-451

NORAD ID: 5554 Int'l Des: 1971-086 Owner: OKB10 Country: SU operational
LEOCIRCULAR

实时位置

正在加载3D地球...

关于 Kosmos-451

正在加载描述...

即将过境

Passes for default location (London). Set your location on the main map for personalized predictions.

高度历史

Loading altitude history...

两行轨道根数

1 5554U 71086H 26104.74719630 .00000013 00000-0 22480-3 0 9994
2 5554 74.0247 111.7417 0053333 335.0992 197.8964 12.34308318455859
Epoch: Apr 14, 2026 • Age: 9 hours

当前状态

高度 1504.4 km
速度 7.13 km/s
星下点 -38.77°S, 142.81°W
类型 other

Most Searched